QPF
0.01 0.00 0.00 0.00 0.00 0.00 0.00 0.00 0.00 0.00 0.00 0.00 0.00 0.00 0.00 0.00 0.00 0.00 0.00 0.01 0.00 0.01 0.01 0.01 0.01 0.02 0.03 0.04 0.04 0.04 0.04 0.05 0.06 0.08 0.10 0.11 0.10 0.08 0.05 0.04 0.04 0.03 0.03
0.02 0.01 0.01 0.01 0.01 0.01 0.01 0.00 0.00 0.00 0.00 0.00 0.00 0.00 0.00 0.00 0.00 0.01 0.01 0.01 0.01 0.01 0.01 0.01 0.01 0.01 0.02 0.03 0.03 0.03 0.03 0.04 0.05 0.06 0.07 0.09 0.13 0.16 0.16 0.10 0.07 0.06 0.04
0.02 0.02 0.01 0.02 0.04 0.03 0.01 0.01 0.01 0.01 0.01 0.01 0.01 0.01 0.00 0.00 0.01 0.01 0.01 0.01 0.01 0.00 0.01 0.01 0.01 0.01 0.01 0.02 0.02 0.02 0.02 0.03 0.03 0.04 0.04 0.06 0.08 0.12 0.15 0.15 0.12 0.10 0.08
0.03 0.02 0.01 0.01 0.02 0.02 0.01 0.01 0.01 0.01 0.01 0.00 0.00 0.00 0.00 0.00 0.01 0.01 0.01 0.01 0.00 0.00 0.00 0.01 0.01 0.01 0.01 0.01 0.02 0.02 0.03 0.03 0.03 0.03 0.03 0.04 0.05 0.06 0.09 0.12 0.13 0.12 0.11
0.05 0.03 0.01 0.01 0.02 0.02 0.02 0.02 0.02 0.02 0.01 0.01 0.00 0.00 0.00 0.00 0.00 0.00 0.00 0.00 0.00 0.00 0.00 0.00 0.00 0.00 0.01 0.01 0.01 0.01 0.02 0.02 0.03 0.03 0.03 0.04 0.05 0.05 0.06 0.08 0.10 0.11 0.11
0.09 0.07 0.03 0.02 0.03 0.04 0.06 0.05 0.05 0.04 0.02 0.01 0.01 0.00 0.00 0.00 0.00 0.00 0.00 0.00 0.00 0.00 0.00 0.00 0.00 0.00 0.00 0.01 0.01 0.01 0.02 0.02 0.02 0.02 0.02 0.03 0.03 0.04 0.04 0.05 0.08 0.10 0.10
0.09 0.09 0.07 0.03 0.02 0.02 0.03 0.03 0.02 0.02 0.01 0.01 0.01 0.00 0.00 0.00 0.00 0.00 0.00 0.00 0.00 0.00 0.00 0.00 0.00 0.00 0.00 0.01 0.01 0.01 0.01 0.02 0.02 0.02 0.02 0.03 0.03 0.04 0.04 0.04 0.06 0.08 0.08
0.04 0.06 0.05 0.04 0.02 0.01 0.01 0.01 0.01 0.01 0.01 0.01 0.01 0.00 0.00 0.00 0.00 0.00 0.00 0.00 0.00 0.00 0.00 0.00 0.00 0.00 0.00 0.00 0.00 0.00 0.01 0.01 0.01 0.02 0.02 0.02 0.03 0.04 0.05 0.06 0.06 0.07 0.07
0.02 0.05 0.05 0.04 0.03 0.01 0.00 0.01 0.01 0.01 0.01 0.01 0.01 0.01 0.01 0.00 0.00 0.00 0.00 0.00 0.00 0.00 0.00 0.00 0.00 0.00 0.00 0.00 0.00 0.00 0.00 0.01 0.01 0.01 0.01 0.01 0.02 0.02 0.03 0.04 0.06 0.06 0.07
0.01 0.02 0.04 0.03 0.03 0.02 0.00 0.00 0.00 0.00 0.00 0.00 0.00 0.00 0.00 0.00 0.00 0.00 0.00 0.00 0.00 0.00 0.00 0.00 0.00 0.00 0.00 0.00 0.00 0.00 0.00 0.00 0.00 0.00 0.01 0.01 0.01 0.02 0.02 0.02 0.03 0.05 0.06
0.01 0.01 0.02 0.03 0.02 0.02 0.01 0.00 0.00 0.00 0.00 0.00 0.00 0.00 0.00 0.00 0.00 0.00 0.00 0.00 0.00 0.00 0.00 0.00 0.00 0.00 0.00 0.00 0.00 0.00 0.00 0.00 0.00 0.00 0.01 0.01 0.01 0.01 0.01 0.01 0.02 0.03 0.05
0.01 0.02 0.02 0.02 0.02 0.01 0.01 0.00 0.00 0.00 0.00 0.00 0.00 0.00 0.00 0.00 0.00 0.00 0.00 0.00 0.00 0.00 0.00 0.00 0.00 0.00 0.00 0.00 0.00 0.00 0.00 0.00 0.00 0.00 0.00 0.01 0.01 0.01 0.01 0.01 0.01 0.02 0.04
0.01 0.02 0.02 0.02 0.01 0.01 0.01 0.00 0.00 0.00 0.00 0.00 0.00 0.00 0.00 0.00 0.00 0.00 0.01 0.00 0.00 0.00 0.00 0.00 0.00 0.00 0.00 0.00 0.00 0.00 0.00 0.00 0.00 0.00 0.00 0.00 0.00 0.01 0.01 0.01 0.01 0.02 0.03
0.01 0.02 0.02 0.02 0.01 0.01 0.01 0.00 0.00 0.00 0.00 0.00 0.00 0.00 0.00 0.00 0.01 0.01 0.01 0.01 0.01 0.01 0.01 0.01 0.00 0.00 0.00 0.00 0.00 0.00 0.00 0.00 0.00 0.00 0.00 0.00 0.00 0.00 0.00 0.01 0.01 0.01 0.02
0.03 0.02 0.02 0.01 0.01 0.01 0.01 0.00 0.00 0.00 0.00 0.00 0.00 0.00 0.00 0.00 0.00 0.00 0.01 0.01 0.01 0.01 0.00 0.00 0.00 0.00 0.00 0.00 0.00 0.00 0.00 0.00 0.00 0.00 0.00 0.00 0.00 0.00 0.00 0.01 0.01 0.01 0.01
0.04 0.04 0.02 0.01 0.01 0.01 0.01 0.01 0.00 0.00 0.00 0.00 0.00 0.00 0.00 0.00 0.00 0.00 0.00 0.00 0.00 0.00 0.00 0.00 0.00 0.00 0.00 0.00 0.00 0.00 0.00 0.00 0.00 0.00 0.00 0.00 0.00 0.00 0.00 0.00 0.00 0.00 0.01
0.02 0.03 0.02 0.01 0.01 0.01 0.01 0.01 0.01 0.00 0.00 0.00 0.00 0.00 0.00 0.00 0.00 0.00 0.00 0.00 0.00 0.00 0.00 0.00 0.00 0.00 0.00 0.00 0.00 0.00 0.00 0.00 0.00 0.00 0.00 0.00 0.00 0.00 0.00 0.00 0.00 0.01 0.01
0.01 0.02 0.02 0.01 0.01 0.01 0.00 0.01 0.01 0.01 0.01 0.01 0.00 0.00 0.00 0.00 0.00 0.00 0.00 0.00 0.00 0.00 0.00 0.00 0.00 0.00 0.00 0.00 0.00 0.00 0.00 0.00 0.00 0.00 0.00 0.00 0.00 0.00 0.00 0.00 0.00 0.00 0.01
0.01 0.01 0.02 0.02 0.01 0.01 0.00 0.00 0.01 0.00 0.00 0.00 0.00 0.00 0.00 0.00 0.00 0.00 0.00 0.00 0.00 0.00 0.00 0.00 0.00 0.00 0.00 0.00 0.00 0.00 0.00 0.00 0.00 0.00 0.00 0.00 0.00 0.00 0.00 0.00 0.00 0.00 0.00
0.01 0.01 0.01 0.02 0.01 0.01 0.00 0.00 0.00 0.00 0.00 0.00 0.00 0.00 0.00 0.00 0.00 0.00 0.00 0.00 0.00 0.00 0.00 0.00 0.00 0.00 0.00 0.00 0.00 0.00 0.00 0.00 0.00 0.00 0.00 0.00 0.00 0.00 0.00 0.00 0.00 0.00 0.00
0.01 0.01 0.01 0.01 0.01 0.01 0.01 0.00 0.00 0.00 0.00 0.00 0.00 0.00 0.00 0.00 0.00 0.00 0.00 0.00 0.00 0.00 0.00 0.00 0.00 0.00 0.00 0.00 0.00 0.00 0.00 0.00 0.00 0.00 0.00 0.00 0.00 0.00 0.00 0.00 0.00 0.00 0.00
0.01 0.01 0.01 0.01 0.01 0.01 0.01 0.01 0.00 0.00 0.00 0.00 0.00 0.00 0.00 0.00 0.00 0.00 0.00 0.00 0.00 0.00 0.00 0.00 0.00 0.00 0.00 0.00 0.00 0.00 0.00 0.00 0.00 0.01 0.01 0.01 0.01 0.01 0.01 0.01 0.01 0.01 0.00
0.01 0.01 0.01 0.01 0.01 0.01 0.01 0.01 0.01 0.00 0.00 0.00 0.00 0.00 0.00 0.00 0.00 0.00 0.00 0.00 0.00 0.00 0.00 0.01 0.01 0.00 0.00 0.00 0.00 0.00 0.01 0.01 0.01 0.01 0.02 0.02 0.02 0.02 0.02 0.02 0.01 0.01 0.00
0.01 0.00 0.00 0.00 0.00 0.01 0.01 0.01 0.00 0.00 0.00 0.00 0.00 0.00 0.00 0.00 0.00 0.00 0.00 0.00 0.00 0.00 0.00 0.00 0.00 0.00 0.00 0.00 0.00 0.00 0.00 0.00 0.00 0.01 0.01 0.01 0.01 0.01 0.01 0.01 0.01 0.01 0.00
0.00 0.00 0.00 0.00 0.00 0.00 0.00 0.00 0.00 0.00 0.00 0.00 0.00 0.00 0.00 0.00 0.00 0.00 0.00 0.01 0.00 0.00 0.00 0.01 0.01 0.01 0.01 0.01 0.01 0.01 0.01 0.01 0.01 0.00 0.01 0.01 0.01 0.01 0.01 0.00 0.00 0.00 0.00
0.00 0.00 0.00 0.00 0.00 0.00 0.00 0.00 0.00 0.00 0.00 0.00 0.00 0.00 0.00 0.00 0.00 0.00 0.01 0.01 0.01 0.00 0.01 0.01 0.01 0.01 0.01 0.01 0.01 0.01 0.01 0.01 0.01 0.01 0.00 0.01 0.01 0.01 0.01 0.00 0.00 0.00 0.00
MSLP
1020.53 1020.31 1020.07 1019.83 1019.60 1019.37 1019.13 1018.87 1018.58 1018.27 1017.94 1017.63 1017.35 1017.12 1016.95 1016.84 1016.77 1016.71 1016.64 1016.52 1016.33 1016.08 1015.78 1015.45 1015.12 1014.83 1014.61 1014.47 1014.41 1014.43 1014.51 1014.61 1014.73 1014.82 1014.88 1014.90 1014.88 1014.81 1014.71 1014.57 1014.41 1014.25 1014.08
1020.77 1020.56 1020.33 1020.09 1019.85 1019.61 1019.35 1019.08 1018.79 1018.49 1018.19 1017.91 1017.67 1017.49 1017.38 1017.32 1017.31 1017.30 1017.27 1017.19 1017.03 1016.80 1016.50 1016.16 1015.81 1015.49 1015.23 1015.04 1014.94 1014.91 1014.95 1015.03 1015.12 1015.22 1015.28 1015.32 1015.30 1015.24 1015.13 1014.98 1014.79 1014.58 1014.36
1021.02 1020.84 1020.63 1020.40 1020.17 1019.92 1019.66 1019.38 1019.09 1018.79 1018.50 1018.24 1018.04 1017.89 1017.82 1017.81 1017.84 1017.87 1017.89 1017.85 1017.74 1017.54 1017.28 1016.96 1016.62 1016.29 1015.99 1015.76 1015.60 1015.51 1015.48 1015.51 1015.56 1015.63 1015.69 1015.72 1015.72 1015.67 1015.56 1015.42 1015.23 1015.00 1014.76
1021.26 1021.12 1020.95 1020.75 1020.52 1020.28 1020.02 1019.73 1019.43 1019.13 1018.84 1018.59 1018.40 1018.27 1018.21 1018.22 1018.28 1018.34 1018.40 1018.40 1018.35 1018.21 1018.01 1017.74 1017.44 1017.12 1016.82 1016.56 1016.35 1016.19 1016.09 1016.04 1016.03 1016.04 1016.07 1016.08 1016.08 1016.04 1015.95 1015.83 1015.65 1015.44 1015.20
1021.45 1021.36 1021.24 1021.08 1020.88 1020.65 1020.38 1020.09 1019.79 1019.47 1019.18 1018.92 1018.71 1018.57 1018.51 1018.51 1018.57 1018.65 1018.73 1018.78 1018.78 1018.72 1018.59 1018.40 1018.17 1017.90 1017.63 1017.36 1017.12 1016.91 1016.73 1016.60 1016.51 1016.45 1016.42 1016.39 1016.36 1016.32 1016.25 1016.15 1016.00 1015.82 1015.61
1021.57 1021.54 1021.46 1021.34 1021.17 1020.96 1020.71 1020.42 1020.10 1019.78 1019.46 1019.18 1018.95 1018.79 1018.69 1018.67 1018.70 1018.78 1018.86 1018.94 1019.00 1019.01 1018.97 1018.88 1018.74 1018.55 1018.33 1018.10 1017.85 1017.61 1017.38 1017.17 1016.99 1016.84 1016.73 1016.65 1016.58 1016.52 1016.45 1016.37 1016.25 1016.10 1015.92
1021.60 1021.61 1021.58 1021.50 1021.37 1021.19 1020.95 1020.67 1020.35 1020.02 1019.69 1019.39 1019.13 1018.93 1018.80 1018.73 1018.72 1018.76 1018.83 1018.92 1019.01 1019.08 1019.13 1019.14 1019.10 1019.02 1018.88 1018.71 1018.49 1018.24 1017.98 1017.71 1017.46 1017.23 1017.04 1016.88 1016.76 1016.66 1016.57 1016.48 1016.38 1016.26 1016.12
1021.51 1021.57 1021.58 1021.54 1021.45 1021.30 1021.08 1020.82 1020.52 1020.20 1019.88 1019.57 1019.29 1019.05 1018.87 1018.75 1018.68 1018.68 1018.71 1018.78 1018.88 1018.99 1019.10 1019.20 1019.26 1019.28 1019.25 1019.16 1018.99 1018.77 1018.51 1018.20 1017.90 1017.60 1017.33 1017.10 1016.91 1016.76 1016.64 1016.53 1016.43 1016.32 1016.20
1021.34 1021.42 1021.46 1021.46 1021.40 1021.29 1021.11 1020.89 1020.63 1020.33 1020.03 1019.73 1019.45 1019.20 1018.98 1018.81 1018.68 1018.61 1018.59 1018.62 1018.69 1018.80 1018.94 1019.10 1019.24 1019.36 1019.42 1019.42 1019.33 1019.16 1018.92 1018.62 1018.28 1017.94 1017.61 1017.31 1017.06 1016.85 1016.69 1016.55 1016.44 1016.33 1016.21
1021.09 1021.18 1021.24 1021.27 1021.24 1021.17 1021.04 1020.87 1020.66 1020.42 1020.16 1019.90 1019.64 1019.39 1019.16 1018.95 1018.77 1018.63 1018.54 1018.50 1018.52 1018.61 1018.74 1018.91 1019.10 1019.28 1019.42 1019.50 1019.49 1019.39 1019.20 1018.92 1018.59 1018.23 1017.87 1017.52 1017.22 1016.97 1016.76 1016.59 1016.45 1016.33 1016.20
1020.79 1020.88 1020.95 1020.99 1021.00 1020.96 1020.88 1020.77 1020.62 1020.45 1020.26 1020.05 1019.84 1019.61 1019.39 1019.16 1018.95 1018.75 1018.59 1018.48 1018.43 1018.45 1018.54 1018.69 1018.88 1019.09 1019.28 1019.42 1019.48 1019.45 1019.31 1019.09 1018.78 1018.43 1018.07 1017.71 1017.38 1017.09 1016.86 1016.66 1016.50 1016.35 1016.21
1020.47 1020.54 1020.61 1020.66 1020.68 1020.68 1020.64 1020.59 1020.50 1020.40 1020.28 1020.15 1019.99 1019.82 1019.62 1019.40 1019.17 1018.94 1018.72 1018.53 1018.40 1018.35 1018.37 1018.47 1018.63 1018.83 1019.03 1019.20 1019.31 1019.34 1019.27 1019.09 1018.84 1018.53 1018.18 1017.83 1017.50 1017.21 1016.96 1016.75 1016.57 1016.41 1016.25
1020.14 1020.19 1020.24 1020.29 1020.32 1020.33 1020.33 1020.31 1020.28 1020.24 1020.19 1020.13 1020.04 1019.92 1019.77 1019.58 1019.36 1019.11 1018.85 1018.61 1018.41 1018.28 1018.22 1018.25 1018.36 1018.52 1018.70 1018.88 1019.02 1019.08 1019.06 1018.95 1018.75 1018.48 1018.18 1017.86 1017.55 1017.27 1017.03 1016.82 1016.63 1016.46 1016.30
1019.81 1019.84 1019.87 1019.90 1019.92 1019.94 1019.94 1019.95 1019.95 1019.95 1019.95 1019.94 1019.91 1019.85 1019.76 1019.61 1019.41 1019.17 1018.91 1018.64 1018.39 1018.20 1018.07 1018.03 1018.07 1018.17 1018.32 1018.49 1018.62 1018.71 1018.72 1018.66 1018.51 1018.29 1018.04 1017.76 1017.49 1017.24 1017.01 1016.81 1016.64 1016.47 1016.30
1019.49 1019.49 1019.50 1019.50 1019.51 1019.51 1019.50 1019.50 1019.50 1019.51 1019.53 1019.55 1019.56 1019.56 1019.51 1019.41 1019.26 1019.06 1018.81 1018.55 1018.28 1018.05 1017.88 1017.78 1017.76 1017.81 1017.91 1018.04 1018.16 1018.25 1018.28 1018.25 1018.14 1017.96 1017.75 1017.52 1017.28 1017.06 1016.86 1016.68 1016.52 1016.37 1016.20
1019.19 1019.17 1019.15 1019.13 1019.10 1019.06 1019.02 1018.98 1018.96 1018.95 1018.96 1018.98 1019.01 1019.02 1019.02 1018.97 1018.87 1018.72 1018.52 1018.28 1018.03 1017.80 1017.61 1017.48 1017.41 1017.42 1017.48 1017.57 1017.67 1017.75 1017.78 1017.75 1017.66 1017.52 1017.33 1017.13 1016.92 1016.72 1016.55 1016.39 1016.25 1016.11 1015.96
1018.93 1018.89 1018.84 1018.78 1018.71 1018.63 1018.54 1018.45 1018.37 1018.31 1018.27 1018.27 1018.28 1018.30 1018.31 1018.30 1018.25 1018.15 1018.01 1017.82 1017.62 1017.41 1017.23 1017.10 1017.01 1016.99 1017.02 1017.08 1017.15 1017.21 1017.23 1017.20 1017.12 1016.98 1016.81 1016.62 1016.42 1016.24 1016.07 1015.93 1015.80 1015.68 1015.55
1018.72 1018.66 1018.58 1018.48 1018.37 1018.23 1018.08 1017.92 1017.78 1017.65 1017.55 1017.49 1017.46 1017.46 1017.47 1017.47 1017.46 1017.41 1017.32 1017.20 1017.05 1016.89 1016.74 1016.63 1016.55 1016.52 1016.53 1016.56 1016.61 1016.65 1016.66 1016.62 1016.53 1016.40 1016.22 1016.03 1015.83 1015.64 1015.47 1015.33 1015.20 1015.09 1014.98
1018.57 1018.48 1018.37 1018.23 1018.07 1017.88 1017.67 1017.45 1017.22 1017.02 1016.84 1016.71 1016.62 1016.58 1016.56 1016.56 1016.56 1016.55 1016.51 1016.44 1016.35 1016.25 1016.14 1016.06 1016.00 1015.98 1015.99 1016.01 1016.05 1016.08 1016.07 1016.02 1015.92 1015.78 1015.60 1015.39 1015.18 1014.97 1014.79 1014.64 1014.51 1014.41 1014.31
1018.46 1018.33 1018.19 1018.02 1017.81 1017.58 1017.31 1017.02 1016.72 1016.44 1016.19 1015.98 1015.82 1015.72 1015.66 1015.63 1015.63 1015.62 1015.61 1015.59 1015.54 1015.49 1015.44 1015.39 1015.36 1015.36 1015.38 1015.41 1015.44 1015.47 1015.46 1015.41 1015.31 1015.16 1014.97 1014.75 1014.52 1014.31 1014.11 1013.93 1013.80 1013.68 1013.59
1018.37 1018.20 1018.02 1017.81 1017.56 1017.28 1016.96 1016.62 1016.27 1015.92 1015.59 1015.31 1015.07 1014.90 1014.78 1014.71 1014.68 1014.67 1014.67 1014.67 1014.66 1014.65 1014.64 1014.63 1014.63 1014.66 1014.69 1014.74 1014.78 1014.81 1014.81 1014.77 1014.68 1014.54 1014.35 1014.14 1013.91 1013.68 1013.46 1013.27 1013.12 1012.99 1012.89
1018.27 1018.06 1017.83 1017.57 1017.29 1016.96 1016.60 1016.22 1015.81 1015.40 1015.02 1014.66 1014.36 1014.11 1013.93 1013.80 1013.73 1013.70 1013.69 1013.70 1013.72 1013.73 1013.76 1013.79 1013.82 1013.87 1013.93 1014.00 1014.06 1014.11 1014.13 1014.11 1014.04 1013.93 1013.77 1013.57 1013.35 1013.12 1012.90 1012.70 1012.52 1012.38 1012.27
1018.12 1017.86 1017.58 1017.28 1016.95 1016.59 1016.19 1015.77 1015.32 1014.87 1014.43 1014.01 1013.64 1013.33 1013.08 1012.90 1012.78 1012.71 1012.69 1012.70 1012.73 1012.77 1012.82 1012.88 1012.95 1013.03 1013.11 1013.20 1013.29 1013.36 1013.41 1013.43 1013.40 1013.32 1013.20 1013.04 1012.85 1012.64 1012.43 1012.22 1012.04 1011.87 1011.74
1017.90 1017.58 1017.25 1016.90 1016.52 1016.13 1015.70 1015.24 1014.76 1014.27 1013.79 1013.32 1012.89 1012.52 1012.22 1011.98 1011.82 1011.72 1011.68 1011.68 1011.72 1011.79 1011.87 1011.96 1012.05 1012.16 1012.27 1012.39 1012.50 1012.60 1012.68 1012.74 1012.76 1012.73 1012.66 1012.56 1012.41 1012.23 1012.04 1011.84 1011.64 1011.46 1011.29
1017.60 1017.22 1016.83 1016.43 1016.02 1015.59 1015.13 1014.64 1014.13 1013.61 1013.09 1012.58 1012.11 1011.69 1011.33 1011.05 1010.85 1010.72 1010.67 1010.68 1010.73 1010.81 1010.92 1011.04 1011.17 1011.31 1011.44 1011.58 1011.72 1011.84 1011.96 1012.05 1012.12 1012.15 1012.14 1012.08 1011.99 1011.85 1011.69 1011.50 1011.31 1011.10 1010.90
1017.21 1016.79 1016.35 1015.91 1015.46 1014.99 1014.50 1013.99 1013.46 1012.91 1012.36 1011.82 1011.31 1010.84 1010.44 1010.13 1009.90 1009.75 1009.69 1009.70 1009.77 1009.88 1010.02 1010.17 1010.33 1010.50 1010.66 1010.82 1010.98 1011.12 1011.26 1011.39 1011.49 1011.57 1011.61 1011.61 1011.56 1011.47 1011.34 1011.17 1010.97 1010.75 1010.52
Thickness
5659 5659 5658 5657 5657 5657 5656 5655 5655 5655 5654 5653 5652 5652 5651 5651 5650 5649 5647 5645 5645 5645 5646 5647 5648 5649 5650 5651 5652 5652 5652 5652 5653 5653 5654 5654 5654 5654 5655 5655 5655 5655 5655
5652 5652 5652 5650 5650 5649 5649 5648 5648 5647 5647 5646 5645 5644 5644 5643 5642 5641 5640 5638 5637 5636 5637 5638 5638 5639 5640 5641 5642 5643 5643 5643 5644 5645 5645 5646 5647 5647 5648 5649 5649 5649 5649
5644 5644 5644 5644 5642 5642 5641 5641 5640 5640 5639 5638 5638 5636 5635 5634 5634 5633 5631 5630 5629 5628 5627 5627 5628 5629 5630 5631 5632 5633 5633 5633 5634 5635 5636 5637 5638 5639 5640 5641 5641 5642 5642
5637 5637 5637 5636 5634 5634 5633 5633 5632 5632 5632 5631 5630 5629 5627 5626 5625 5624 5623 5621 5620 5619 5618 5617 5617 5618 5618 5619 5620 5621 5622 5623 5623 5624 5626 5627 5629 5630 5631 5632 5633 5634 5635
5629 5629 5628 5627 5627 5626 5626 5625 5624 5624 5623 5622 5621 5620 5619 5618 5617 5615 5614 5612 5611 5610 5609 5608 5607 5606 5606 5607 5608 5610 5611 5612 5613 5614 5615 5617 5618 5620 5621 5623 5624 5626 5627
5620 5621 5620 5620 5619 5618 5618 5617 5616 5615 5614 5613 5613 5612 5611 5609 5608 5606 5605 5603 5601 5599 5598 5597 5597 5596 5595 5595 5595 5597 5599 5600 5601 5602 5604 5605 5607 5609 5611 5613 5615 5616 5618
5612 5612 5612 5611 5611 5610 5609 5608 5607 5607 5606 5604 5606 5606 5605 5602 5600 5597 5595 5593 5591 5589 5587 5586 5586 5585 5584 5583 5583 5584 5585 5587 5588 5590 5591 5593 5595 5597 5599 5602 5604 5605 5607
5604 5604 5604 5603 5602 5601 5600 5599 5598 5598 5597 5595 5596 5598 5600 5599 5593 5588 5585 5583 5581 5579 5577 5575 5574 5573 5572 5572 5572 5571 5572 5574 5575 5577 5579 5581 5583 5585 5587 5590 5592 5594 5596
5596 5595 5595 5595 5594 5593 5592 5591 5589 5589 5589 5587 5584 5585 5588 5591 5586 5581 5576 5573 5570 5569 5567 5564 5563 5561 5560 5560 5560 5559 5559 5560 5562 5564 5565 5567 5570 5572 5574 5577 5579 5582 5585
5589 5588 5587 5587 5586 5585 5584 5582 5581 5579 5579 5578 5575 5572 5571 5570 5571 5573 5570 5565 5561 5558 5556 5554 5552 5550 5549 5548 5547 5546 5546 5547 5548 5550 5552 5554 5556 5558 5561 5563 5566 5569 5571
5581 5580 5580 5579 5578 5577 5575 5573 5571 5570 5569 5567 5566 5563 5562 5559 5557 5557 5561 5557 5552 5548 5545 5542 5540 5538 5537 5536 5534 5533 5533 5533 5535 5536 5538 5540 5542 5544 5546 5549 5551 5554 5557
5575 5574 5572 5571 5570 5569 5567 5565 5562 5560 5558 5556 5554 5552 5551 5550 5548 5546 5546 5546 5543 5539 5534 5531 5528 5526 5524 5523 5521 5520 5519 5520 5520 5522 5523 5526 5527 5528 5531 5533 5536 5539 5542
5569 5567 5565 5564 5562 5561 5558 5555 5553 5551 5549 5546 5544 5542 5539 5536 5534 5532 5530 5531 5530 5529 5525 5521 5517 5513 5511 5510 5508 5506 5506 5506 5506 5507 5508 5510 5511 5513 5515 5517 5521 5524 5527
5562 5559 5557 5556 5554 5552 5549 5547 5544 5541 5539 5536 5533 5530 5528 5525 5521 5519 5517 5516 5517 5519 5517 5513 5507 5502 5498 5496 5494 5492 5492 5492 5492 5492 5493 5495 5496 5498 5499 5502 5505 5508 5511
5553 5551 5549 5547 5545 5543 5540 5538 5535 5532 5529 5526 5523 5520 5516 5513 5509 5506 5503 5500 5499 5505 5509 5504 5497 5491 5485 5483 5480 5479 5478 5478 5477 5478 5478 5479 5481 5483 5485 5487 5489 5493 5495
5544 5543 5541 5538 5537 5534 5531 5528 5525 5522 5519 5516 5512 5509 5506 5502 5498 5494 5491 5487 5484 5484 5488 5489 5483 5477 5472 5469 5467 5465 5465 5464 5463 5463 5464 5465 5466 5467 5469 5471 5474 5477 5480
5535 5534 5531 5529 5527 5525 5522 5518 5515 5512 5509 5506 5502 5499 5495 5491 5487 5483 5479 5476 5472 5469 5471 5473 5468 5463 5459 5456 5454 5452 5451 5450 5451 5450 5449 5450 5451 5453 5454 5456 5459 5462 5465
5527 5524 5521 5520 5517 5514 5512 5509 5506 5502 5499 5496 5492 5489 5485 5480 5476 5472 5468 5465 5461 5457 5456 5458 5456 5451 5447 5443 5440 5439 5437 5437 5437 5436 5436 5436 5438 5439 5440 5443 5445 5447 5450
5517 5514 5511 5510 5507 5504 5501 5498 5495 5492 5489 5485 5481 5478 5475 5470 5467 5462 5457 5453 5449 5445 5442 5441 5441 5437 5433 5429 5426 5425 5425 5424 5424 5424 5423 5424 5425 5426 5428 5429 5431 5434 5436
5506 5504 5501 5499 5496 5493 5490 5486 5483 5480 5477 5474 5470 5466 5463 5459 5455 5450 5446 5442 5437 5433 5430 5427 5426 5423 5420 5416 5413 5413 5413 5413 5412 5411 5411 5411 5412 5413 5415 5417 5419 5420 5423
5495 5493 5490 5488 5485 5481 5478 5475 5471 5468 5465 5463 5459 5455 5451 5446 5442 5437 5433 5430 5424 5421 5417 5414 5412 5410 5408 5404 5401 5400 5399 5400 5400 5399 5399 5400 5401 5402 5403 5405 5406 5408 5410
5484 5482 5479 5476 5473 5470 5465 5461 5458 5456 5454 5451 5448 5444 5439 5434 5429 5424 5420 5415 5411 5408 5405 5402 5400 5399 5397 5393 5389 5387 5386 5386 5389 5388 5386 5388 5388 5390 5391 5392 5394 5396 5398
5473 5470 5467 5464 5461 5458 5452 5448 5445 5442 5441 5439 5435 5432 5428 5423 5417 5413 5409 5404 5400 5395 5391 5389 5388 5387 5384 5380 5377 5375 5374 5374 5375 5375 5373 5377 5378 5379 5379 5380 5381 5383 5385
5460 5458 5454 5451 5448 5445 5440 5436 5432 5429 5428 5426 5422 5418 5415 5411 5406 5401 5398 5394 5391 5387 5382 5378 5376 5374 5371 5367 5364 5363 5362 5362 5363 5362 5361 5364 5368 5368 5369 5369 5370 5371 5373
5448 5445 5441 5438 5435 5433 5428 5423 5418 5417 5416 5414 5410 5406 5402 5399 5396 5389 5385 5383 5381 5377 5372 5368 5365 5362 5359 5356 5353 5351 5351 5351 5353 5354 5351 5351 5356 5357 5359 5360 5360 5360 5361
5434 5431 5428 5425 5422 5420 5416 5411 5405 5404 5403 5402 5399 5395 5390 5386 5383 5378 5374 5372 5370 5368 5362 5359 5356 5353 5350 5348 5345 5342 5341 5340 5341 5343 5342 5340 5342 5342 5346 5350 5350 5350 5351